Weather History for KGTF - November, 2011

Change the Weather History Date:

Friday, November 25, 2011

  Actual Average Record
Temperature  
Mean Temperature 36 °F 29 °F  
Max Temperature 45 °F 39 °F 67 °F (1914)
Min Temperature 26 °F 20 °F -21 °F (1985)
Degree Days  
Heating Degree Days 29 36  
Month to date heating degree days 792 767  
Since 1 July heating degree days 1488 1787  
Cooling Degree Days 0 0  
Month to date cooling degree days 0 0  
Year to date cooling degree days 365 298  
Moisture  
Dew Point 19 °F    
Average Humidity 58    
Maximum Humidity 82    
Minimum Humidity 34    
Precipitation  
Precipitation T in 0.01 in 0.64 in (1961)
Month to date precipitation 0.31 0.49  
Year to date precipitation 16.16 14.10  
Snow  
Snow 0.00 in 0.30 in 6.80 in (1983)
Month to date snowfall 5.0 6.6  
Since 1 July snowfall 5.1 12.2  
Since 1 September snowfall 5.1 11.9  
Snow Depth 0.00 in    
Sea Level Pressure  
Sea Level Pressure 29.95 in    
Wind  
Wind Speed 18 mph (WSW)    
Max Wind Speed 37 mph    
Max Gust Speed 47 mph    
Visibility 10 miles    
Events Rain    
T = Trace of Precipitation, MM = Missing Value Source: NWS Daily Summary

Daily Weather History Graph

Daily Weather History Graph

Search for Another Location

Airport or City:

Trip Planner

Search our weather history database for the weather conditions in past years. The results will help you decide how hot, cold, wet, or windy it might be!

Date:

Astronomy

Nov. 25, 2011 Rise Set
Actual Time 7:44 AM MST 4:40 PM MST
Civil Twilight 7:09 AM MST 5:14 PM MST
Nautical Twilight 6:31 AM MST 5:52 PM MST
Astronomical Twilight 5:54 AM MST 6:29 PM MST
Moon 8:20 AM MST (11/25) 5:06 PM MST (11/25)
Length of Visible Light 10h 05m
Length of Day
8h 56m
New Moon, 0% of the Moon is Illuminated
Nov 25
New Moon
Dec 2
First Quarter
Dec 10
Full
Dec 17
Last Quarter
Dec 24
New

Hourly Weather History & Observations

Time (MST) Temp. Windchill Dew Point Humidity Pressure Visibility Wind Dir Wind Speed Gust Speed Precip Events Conditions
12:53 AM 44.6 °F 36.9 °F 23.0 °F 43% 29.57 in 10.0 mi SSW 18.4 mph - N/A   Clear
1:53 AM 45.0 °F 36.9 °F 25.0 °F 46% 29.59 in 10.0 mi SW 20.7 mph 28.8 mph N/A   Clear
2:53 AM 42.1 °F 33.9 °F 25.0 °F 51% 29.61 in 10.0 mi SW 17.3 mph 21.9 mph N/A   Clear
3:53 AM 41.0 °F 34.3 °F 23.0 °F 49% 29.62 in 10.0 mi WSW 11.5 mph - N/A   Clear
4:53 AM 37.9 °F 28.9 °F 26.1 °F 62% 29.61 in 10.0 mi SW 16.1 mph - N/A   Clear
5:53 AM 41.0 °F 33.1 °F 27.0 °F 57% 29.64 in 10.0 mi SW 15.0 mph - 0.00 in Rain Light Rain
6:53 AM 39.0 °F 29.6 °F 30.0 °F 70% 29.70 in 10.0 mi West 18.4 mph - 0.00 in   Overcast
7:53 AM 36.0 °F 29.0 °F 30.9 °F 82% 29.75 in 10.0 mi WSW 9.2 mph - N/A   Overcast
8:53 AM 37.9 °F 26.8 °F 25.0 °F 60% 29.75 in 10.0 mi WSW 24.2 mph 29.9 mph 0.00 in   Overcast
9:53 AM 37.0 °F 25.6 °F 24.1 °F 59% 29.81 in 10.0 mi WSW 24.2 mph 32.2 mph N/A   Mostly Cloudy
10:53 AM 35.1 °F 23.5 °F 24.1 °F 64% 29.83 in 10.0 mi WSW 21.9 mph 32.2 mph N/A   Partly Cloudy
11:53 AM 39.2 °F 27.6 °F 15.8 °F 39% 29.78 in 10.0 mi WSW 28.8 mph 36.8 mph N/A   Clear
12:53 PM 39.0 °F 27.0 °F 14.0 °F 36% 29.86 in 10.0 mi WSW 31.1 mph 39.1 mph N/A   Clear
1:53 PM 37.9 °F 25.7 °F 12.0 °F 35% 29.91 in 10.0 mi WSW 29.9 mph 40.3 mph N/A   Clear
2:53 PM 37.0 °F 25.6 °F 12.9 °F 37% 29.98 in 10.0 mi West 24.2 mph 35.7 mph N/A   Clear
3:53 PM 35.1 °F 23.8 °F 12.0 °F 39% 30.05 in 10.0 mi West 20.7 mph 32.2 mph N/A   Clear
4:53 PM 32.0 °F 20.1 °F 10.9 °F 42% 30.12 in 10.0 mi West 19.6 mph - N/A   Clear
5:53 PM 30.0 °F 19.5 °F 12.0 °F 47% 30.19 in 10.0 mi WSW 13.8 mph - N/A   Mostly Cloudy
6:53 PM 32.0 °F 21.6 °F 12.9 °F 45% 30.26 in 10.0 mi WSW 15.0 mph - N/A   Overcast
7:53 PM 30.0 °F 21.7 °F 12.9 °F 49% 30.34 in 10.0 mi SW 9.2 mph - N/A   Overcast
8:53 PM 30.0 °F 20.0 °F 12.9 °F 49% 30.39 in 10.0 mi SW 12.7 mph - N/A   Mostly Cloudy
9:53 PM 30.9 °F 20.7 °F 10.9 °F 43% 30.44 in 10.0 mi WSW 13.8 mph - N/A   Overcast
10:53 PM 30.2 °F 20.8 °F 12.2 °F 47% 30.37 in 10.0 mi WSW 11.5 mph - N/A   Overcast
11:53 PM 26.1 °F 16.2 °F 12.0 °F 55% 30.53 in 10.0 mi SW 10.4 mph - N/A   Mostly Cloudy